Lapse_Rate
6.1 6.2 6.9 6.9 6.8 6.9 6.8 6.7 6.8 6.8 6.7 6.9 6.8 6.7 6.8 6.6 6.4 6.3 6.3 6.2 6.1 6.1 6.1 6.0 5.9 5.8 5.7 5.6 5.6 5.7 5.7 5.7 5.7 5.6 5.6 5.6 5.6 5.7 5.6 5.6 5.5 5.5 5.5
6.4 6.1 6.5 7.0 6.9 6.8 7.0 6.8 6.9 6.8 6.8 6.7 6.6 6.7 6.8 6.7 6.9 6.7 6.6 6.4 6.4 6.3 6.3 6.3 6.1 5.9 5.8 5.8 5.7 5.6 5.7 5.6 5.6 5.6 5.6 5.6 5.7 5.5 5.2 6.0 5.7 5.3 5.4
6.4 6.4 6.9 7.0 6.9 7.0 6.9 7.0 6.9 6.9 6.9 6.8 6.6 6.8 6.9 6.9 6.9 6.7 6.4 6.6 6.5 6.3 6.3 6.2 6.1 6.0 5.9 5.9 5.9 5.8 5.7 5.7 5.8 5.7 5.6 5.4 5.4 5.4 5.4 5.6 6.2 5.5 5.6
6.8 6.4 6.1 6.3 6.6 6.8 7.0 6.8 6.8 6.8 6.8 6.8 6.8 6.9 6.7 6.8 6.7 6.6 6.4 6.2 6.2 6.2 6.3 6.2 6.1 6.1 6.0 6.0 6.1 6.1 6.0 5.9 5.9 5.8 5.8 5.6 5.4 5.3 5.4 5.6 5.6 5.6 5.7
6.9 6.6 6.1 6.7 6.8 6.7 6.8 6.7 7.0 6.8 6.8 6.8 6.9 6.8 6.7 6.5 6.6 6.5 6.3 6.2 6.2 6.2 6.2 6.3 6.3 6.3 6.3 6.4 6.3 6.3 6.2 6.1 6.0 5.8 5.7 5.8 5.6 5.6 5.5 5.4 5.5 5.3 5.4
7.0 7.0 6.5 6.5 6.7 6.6 6.7 6.4 6.6 6.9 6.9 6.6 6.6 6.6 6.6 6.6 6.4 6.3 6.3 6.2 6.2 6.4 6.5 6.6 6.6 6.7 6.7 6.6 6.5 6.3 6.3 6.1 6.0 5.8 5.7 5.6 5.8 5.7 5.6 5.5 5.4 5.1 5.2
7.2 6.8 6.4 6.4 6.3 6.4 6.5 6.4 6.6 6.7 6.6 6.5 6.2 6.1 6.6 6.6 6.4 6.4 6.4 6.4 6.4 6.5 6.8 6.9 6.9 6.8 6.7 6.6 6.4 6.3 6.3 6.0 6.0 6.0 6.0 5.9 5.8 5.6 5.5 5.4 4.9 4.9 5.3
7.3 7.2 6.7 6.5 6.4 6.4 6.6 6.6 6.6 6.5 6.1 6.1 6.4 6.4 6.5 6.6 6.6 6.5 6.6 6.7 6.9 7.0 7.1 7.0 7.0 6.8 6.6 6.5 6.4 6.3 6.4 6.3 6.3 6.3 6.3 6.1 6.0 5.7 5.5 5.4 5.3 5.3 5.0
7.6 7.4 7.4 7.1 6.7 6.9 7.1 6.7 6.6 6.1 6.3 6.3 6.2 6.3 6.3 6.6 6.5 6.5 6.6 6.7 6.9 7.0 7.1 7.2 7.0 6.7 6.6 6.6 6.5 6.5 6.6 6.6 6.4 6.5 6.4 6.3 6.1 6.0 5.8 5.6 5.6 5.4 4.9
7.3 7.7 7.9 7.6 7.5 7.4 7.6 7.3 6.9 6.5 6.3 6.2 6.2 6.4 6.4 6.5 6.5 6.5 6.6 6.8 6.9 7.0 7.0 7.0 6.8 6.8 6.6 6.6 6.6 6.7 6.6 6.5 6.5 6.5 6.3 6.3 6.1 6.0 5.8 5.4 5.3 5.4 5.4
7.4 7.3 7.4 7.5 7.4 7.5 7.4 7.5 7.6 7.5 7.2 7.2 6.8 6.7 6.7 6.6 6.6 6.6 6.6 6.7 6.6 6.6 6.6 6.7 6.6 6.6 6.6 6.6 6.7 6.6 6.6 6.4 6.4 6.3 6.2 6.0 6.0 5.9 5.8 5.8 5.8 5.7 5.7
7.0 7.1 7.1 7.4 7.6 7.4 7.6 7.5 7.6 7.6 7.3 7.2 6.9 6.6 6.5 6.4 6.2 6.3 6.4 6.5 6.6 6.6 6.5 6.4 6.5 6.5 6.5 6.6 6.7 6.5 6.6 6.5 6.4 6.2 6.0 5.9 5.9 5.9 6.0 6.0 5.9 5.8 5.8
6.7 6.8 6.9 7.1 7.1 7.1 7.3 7.4 7.3 7.4 7.1 6.8 6.6 6.4 6.5 6.7 6.8 6.7 6.7 6.8 6.7 6.7 6.6 6.5 6.5 6.5 6.4 6.4 6.4 6.4 6.4 6.5 6.3 6.0 6.0 6.0 6.1 6.0 6.1 5.9 5.7 6.0 6.2
6.8 7.0 6.9 6.9 6.8 6.9 7.1 7.1 7.0 6.8 6.6 6.6 6.7 6.7 6.9 7.0 7.0 7.1 7.0 6.9 6.9 6.8 6.9 6.8 6.6 6.5 6.4 6.3 6.2 6.1 6.1 6.3 6.3 6.1 6.1 6.1 6.2 6.2 6.1 6.1 6.1 6.4 6.6
6.7 6.9 6.7 6.8 6.6 6.6 6.8 6.8 6.7 6.5 6.4 6.5 6.6 6.8 6.9 7.0 7.0 7.1 7.2 7.2 7.1 7.1 7.0 6.8 6.7 6.3 6.1 6.1 6.0 6.0 6.3 6.2 6.2 6.0 6.1 6.2 6.3 6.1 6.0 6.2 6.5 6.6 6.5
6.7 6.6 6.6 6.5 6.7 6.6 6.7 6.7 6.7 6.7 6.7 6.6 6.7 6.8 6.9 7.0 7.2 7.2 7.2 7.3 7.4 7.5 7.4 7.1 6.8 6.6 6.2 6.1 6.2 6.1 6.2 6.1 6.0 6.1 6.0 6.1 6.1 6.3 6.3 6.5 6.5 6.3 6.4
6.7 6.7 6.6 6.6 6.6 6.6 6.6 6.7 6.8 6.8 6.9 6.9 6.9 7.0 7.1 7.2 7.2 7.3 7.2 7.3 7.3 7.4 7.3 7.1 6.7 6.6 6.3 6.1 6.2 6.2 6.3 6.3 6.1 6.0 6.1 6.1 6.3 6.3 6.4 6.4 6.2 6.4 6.4
6.8 6.8 6.7 6.5 6.6 6.4 6.5 6.5 6.7 6.8 6.9 6.9 7.0 7.2 7.2 7.3 7.5 7.4 7.4 7.5 7.4 7.1 7.1 6.8 6.7 6.5 6.2 6.2 6.2 6.1 6.3 6.4 6.3 6.2 6.2 6.2 6.4 6.4 6.4 6.2 6.4 6.3 6.3
6.7 6.6 6.6 6.8 6.5 6.5 6.5 6.5 6.9 7.1 7.2 7.1 7.1 7.2 7.3 7.3 7.3 7.5 7.5 7.6 7.5 7.4 7.1 6.8 6.6 6.4 6.3 6.1 6.1 5.9 6.0 6.2 6.4 6.4 6.3 6.3 6.4 6.3 6.2 6.3 6.5 6.4 6.4
6.9 6.8 6.8 6.7 6.6 6.6 6.7 6.7 6.7 6.8 7.0 7.0 7.0 7.2 7.1 7.1 7.1 7.2 7.4 7.5 7.4 7.2 7.0 6.7 6.8 6.6 6.4 6.3 6.1 6.1 6.4 6.2 6.2 6.3 6.3 6.4 6.3 6.1 6.3 6.4 6.3 6.4 6.3
6.8 6.8 6.6 6.6 6.7 6.7 6.8 6.8 6.8 6.8 6.8 7.0 6.9 6.9 6.8 6.9 7.1 7.2 7.4 7.4 7.2 7.0 6.9 6.7 6.6 6.3 6.3 6.2 6.2 6.3 6.3 6.2 6.2 6.3 6.3 6.2 6.1 6.1 6.2 6.2 6.1 6.2 6.1
6.4 6.6 6.5 6.4 6.6 6.8 6.8 6.8 6.8 6.7 6.8 6.9 6.9 6.9 6.9 7.0 7.2 7.2 7.2 7.2 7.1 7.1 6.7 6.6 6.4 6.5 6.4 6.4 6.3 6.3 6.4 6.1 6.2 6.2 6.1 6.0 6.0 6.2 6.0 5.9 5.9 5.9 5.9
6.2 6.4 6.5 6.5 6.5 6.6 6.6 6.4 6.5 6.6 6.6 6.6 6.7 6.8 6.7 6.8 6.7 6.7 6.9 7.0 6.9 6.8 6.7 6.7 6.7 6.7 6.5 6.3 6.4 6.4 6.2 6.2 6.2 6.1 6.0 6.0 6.0 5.9 5.8 5.8 5.7 5.8 5.7
6.3 6.2 6.3 6.4 6.4 6.4 6.5 6.5 6.5 6.5 6.5 6.5 6.5 6.5 6.5 6.5 6.5 6.3 6.6 6.7 6.7 6.6 6.5 6.4 6.4 6.3 6.3 6.3 6.4 6.3 6.2 6.0 6.0 6.0 5.9 5.8 5.7 5.7 5.8 5.8 5.7 5.7 5.7
6.4 6.3 6.3 6.3 6.3 6.3 6.3 6.3 6.3 6.3 6.4 6.3 6.2 6.3 6.3 6.0 5.8 5.8 6.3 6.4 6.4 6.4 6.4 6.3 6.3 6.3 6.3 6.2 6.3 6.2 6.0 5.9 5.8 5.8 5.7 5.6 5.5 5.6 5.7 5.6 5.6 5.7 5.6
6.1 6.0 6.1 6.2 6.1 6.1 6.1 6.3 6.1 6.1 6.2 5.9 5.8 6.0 6.0 6.1 6.1 5.7 5.5 5.8 6.1 6.2 6.2 6.2 6.2 6.2 6.1 6.1 6.1 6.0 6.0 5.9 5.8 5.7 5.6 5.6 5.5 5.5 5.5 5.6 5.6 5.5 5.5
Wind_Speed
14 10 7 5 5 7 11 12 12 11 9 7 6 6 6 6 6 9 10 8 9 10 9 8 7 7 7 8 8 7 6 5 7 6 6 7 8 8 6 6 7 7 3
15 13 9 8 7 8 9 11 13 12 10 7 6 6 6 5 6 7 8 9 10 10 9 8 7 4 4 9 9 8 6 5 3 2 4 3 6 6 5 2 3 4 6
14 16 12 10 7 7 8 9 10 9 10 10 6 3 1 0 2 4 5 5 5 7 5 6 4 4 3 4 4 3 3 4 2 5 3 3 4 3 3 4 3 4 3
5 10 14 11 9 8 6 7 8 9 8 8 7 8 6 6 6 3 2 2 2 3 4 6 6 5 3 3 4 4 4 4 6 1 3 5 1 3 3 2 3 2 3
13 10 8 8 10 8 6 6 6 7 7 7 8 7 8 4 2 2 4 4 3 2 2 3 4 4 3 4 5 5 6 4 5 6 4 5 5 7 5 5 3 2 1
14 14 14 12 9 9 8 6 8 7 7 7 7 7 6 5 4 4 3 3 2 2 2 2 3 3 4 5 4 5 5 6 7 6 6 7 4 4 3 4 5 3 3
13 14 15 13 11 10 9 8 9 8 8 7 7 6 6 6 4 3 2 3 3 3 3 2 3 3 4 5 5 5 5 7 7 8 6 5 6 4 1 2 2 3 3
7 6 9 6 11 10 11 11 12 11 9 7 6 5 4 3 2 1 2 3 2 2 1 3 4 5 6 7 6 5 5 6 5 6 6 5 3 3 3 3 3 2 3
7 9 6 4 9 10 13 12 11 10 9 8 6 5 4 3 2 2 1 2 1 1 2 3 4 5 5 6 6 5 5 1 2 3 3 2 2 3 2 2 1 2 3
5 5 6 6 7 7 8 10 11 11 9 9 7 5 3 2 1 1 3 2 1 2 2 3 4 4 4 4 4 4 2 2 1 1 3 2 2 3 2 2 1 1 0
6 3 3 4 6 7 10 11 10 10 9 8 7 6 4 3 2 2 1 2 2 2 2 2 3 3 4 4 3 2 1 1 1 2 2 3 2 2 2 2 2 1 1
8 3 2 5 7 8 10 9 9 10 9 8 7 6 5 4 3 3 2 2 3 1 3 3 2 2 3 4 3 0 1 1 1 2 3 3 2 3 2 1 2 1 3
7 3 3 6 8 10 10 10 8 6 6 6 6 5 4 4 4 3 3 3 3 2 2 3 3 2 2 2 2 1 2 3 5 4 4 4 3 4 4 4 3 3 3
12 7 5 7 9 10 11 10 9 8 7 5 5 5 4 4 3 3 3 3 3 3 3 1 2 2 1 1 1 1 3 5 6 6 6 6 6 5 4 4 3 2 1
10 9 8 8 9 10 10 9 9 9 8 7 6 5 4 3 2 3 3 3 3 2 1 1 1 2 2 1 2 4 4 5 7 7 7 7 8 11 7 4 3 3 2
14 11 10 11 12 12 12 11 10 10 9 8 7 6 5 6 6 5 4 3 2 2 3 2 1 1 1 5 4 4 5 5 5 6 4 5 7 5 6 8 9 6 3
14 13 11 12 13 13 11 11 10 9 9 7 6 6 6 6 7 6 4 4 4 3 3 2 3 1 2 5 6 5 5 4 3 3 3 4 3 4 2 5 4 7 7
15 14 11 10 12 12 11 9 10 11 10 8 8 7 7 6 6 5 5 4 3 4 3 2 3 3 3 5 7 8 5 5 4 3 3 3 3 2 2 2 1 3 3
14 13 8 8 8 10 9 10 10 9 8 8 7 7 6 7 7 6 5 4 4 4 3 2 3 3 4 7 7 6 4 4 3 3 3 1 3 4 3 2 1 2 3
11 10 10 8 9 9 10 11 11 10 9 8 8 7 7 8 7 6 5 4 4 4 3 3 3 4 2 7 7 5 3 3 3 3 3 1 3 2 1 4 2 2 1
10 9 8 5 5 6 10 11 9 8 8 7 8 8 7 8 7 6 4 5 5 4 4 4 3 3 5 6 7 4 2 2 2 2 3 3 2 1 2 3 4 3 4
9 7 4 1 3 6 8 8 8 7 8 8 8 7 7 6 5 7 5 5 6 6 6 6 5 5 5 5 8 8 6 2 2 2 1 2 2 2 5 5 5 4 2
7 4 3 2 4 6 7 8 7 8 8 8 9 8 9 8 7 7 6 5 6 5 5 4 4 4 3 3 10 9 9 7 3 1 1 1 3 3 4 7 7 4 3
6 3 3 4 5 7 6 5 7 8 9 9 9 8 6 7 6 5 6 5 5 5 5 5 5 4 4 4 4 4 4 9 5 4 3 4 5 5 4 2 4 3 3
5 4 5 5 5 6 7 7 7 8 8 7 6 6 6 7 6 5 6 6 7 7 6 5 5 5 5 5 7 7 4 4 5 4 2 3 4 4 3 4 4 3 3
6 6 5 5 4 5 5 4 7 8 8 9 7 6 6 6 5 5 4 12 11 13 13 6 4 3 6 4 10 12 11 10 8 4 4 4 4 4 3 3 3 3 4
Wind_Direction
229 176 184 185 208 217 198 196 193 198 195 197 200 225 208 213 226 224 225 238 238 232 234 247 250 245 252 259 259 262 255 253 262 274 269 260 253 244 259 273 269 266 266
217 171 182 165 214 213 209 202 200 194 199 194 204 213 221 223 219 215 227 235 237 241 247 248 254 258 259 263 267 268 266 273 276 253 291 282 271 261 223 254 310 298 298
228 190 187 169 193 217 211 206 198 198 195 201 202 183 65 329 218 221 229 232 254 259 287 311 319 302 308 271 293 344 303 251 239 222 231 278 250 345 132 204 222 267 268
251 286 182 173 187 207 208 226 198 196 195 201 199 198 210 213 214 242 122 152 230 253 258 258 248 237 233 245 258 261 245 238 250 229 245 243 139 263 297 241 269 252 315
244 223 225 204 189 180 189 197 193 187 178 190 211 217 231 250 97 153 185 202 189 214 228 263 277 276 282 283 280 272 258 258 261 250 247 218 234 230 232 264 268 244 143
231 217 215 217 200 169 173 181 176 179 177 174 194 203 201 186 175 180 198 196 193 183 203 280 278 291 283 282 280 277 270 261 260 260 263 253 224 219 206 228 233 247 299
233 229 221 216 197 180 183 172 178 168 173 180 176 186 186 191 197 180 207 228 229 203 215 283 284 290 295 290 285 283 267 269 260 249 243 247 252 237 188 153 186 217 230
249 248 274 251 185 176 187 188 182 167 166 160 157 169 178 186 187 201 246 251 262 284 7 291 293 296 297 293 289 281 274 274 281 288 292 262 252 199 179 194 163 201 224
310 274 238 258 240 188 195 186 183 168 160 156 163 174 179 187 212 206 264 279 294 302 309 301 307 306 302 297 289 282 287 358 334 36 22 58 37 60 35 348 192 189 179
348 303 272 247 249 189 198 198 182 174 161 151 170 165 149 136 160 231 241 251 255 262 281 298 303 305 298 294 285 272 333 330 24 43 120 89 89 77 65 82 97 60 312
346 312 250 240 206 190 178 184 180 162 156 160 156 155 150 172 195 209 208 245 257 277 281 295 298 308 310 309 294 266 282 182 138 82 86 82 75 84 73 41 40 70 253
328 317 226 191 183 183 178 174 171 171 165 162 162 168 167 179 200 197 196 225 245 265 307 299 290 303 323 319 331 330 328 209 115 79 82 67 60 78 66 118 99 74 31
322 300 225 194 188 184 183 180 180 166 155 160 170 170 189 201 216 217 215 223 243 240 248 284 289 293 339 336 3 15 85 85 71 45 60 53 73 72 61 39 51 41 33
311 272 233 208 194 190 187 179 178 171 164 170 180 186 193 222 230 214 222 230 230 227 221 260 318 329 318 11 74 58 84 82 77 67 52 54 59 71 64 78 63 60 55
299 275 242 227 208 196 192 190 186 180 177 177 187 191 191 186 196 220 207 204 215 192 194 180 230 267 253 217 148 126 122 113 101 90 79 65 69 69 53 62 55 53 45
289 274 247 230 219 209 202 196 193 187 186 190 192 181 186 184 189 201 190 179 186 167 166 175 183 217 197 150 144 144 129 123 127 108 89 83 56 59 65 74 64 45 40
289 274 251 234 227 215 202 202 196 187 188 198 191 191 191 194 204 199 183 192 177 167 160 156 147 137 135 128 122 117 100 89 78 101 83 84 82 75 94 96 87 78 61
312 284 260 253 228 219 197 186 184 189 188 194 193 188 192 198 202 184 184 172 160 157 150 145 148 148 132 131 117 113 90 98 96 107 123 140 161 103 99 94 116 69 77
312 291 294 297 244 212 184 183 183 186 189 193 193 187 185 198 195 187 177 162 149 130 130 143 128 111 137 149 136 114 127 116 144 186 203 194 163 117 39 62 42 218 136
320 319 308 281 246 200 173 187 188 185 193 194 188 184 185 197 189 173 151 150 143 130 137 113 99 161 161 166 167 176 120 171 188 167 141 158 360 99 170 319 322 294 55
320 318 292 277 254 181 181 196 186 187 182 183 179 180 185 190 173 151 153 148 143 142 146 143 170 176 206 196 197 201 241 224 185 180 197 148 193 244 284 268 313 6 346
326 324 306 264 139 158 181 193 194 177 173 178 175 176 176 170 165 158 146 149 150 169 186 185 189 198 199 229 200 206 224 241 245 217 195 145 183 274 278 260 261 280 260
309 309 294 201 178 182 193 187 186 171 175 179 183 187 187 180 170 168 165 166 181 192 194 197 200 197 191 199 221 221 220 224 253 252 217 175 208 253 259 254 255 220 244
282 268 244 218 199 190 195 196 168 175 182 187 190 184 170 175 173 169 172 178 185 199 202 204 208 207 187 201 191 205 223 223 212 230 233 227 230 242 267 243 227 229 252
253 235 238 240 226 200 194 180 173 178 187 188 177 173 186 182 172 186 185 194 202 207 205 207 206 203 208 214 203 194 200 198 209 199 183 208 226 233 216 218 234 231 223
241 217 220 252 240 209 204 189 176 180 183 187 192 189 177 173 178 184 202 220 222 221 231 231 208 214 231 200 214 215 214 212 204 202 220 228 228 231 234 230 227 216 236